Location: Oroua River
(40.4333°S, 175.4333°E)
Time: 14:29:51
(UTC+00:00)

USA 267 - Pass Details

Date: 03 February 2023
Orbit: 1099 x 1109 km, 123.0° (Epoch: 30 January)

Event Time Altitude Azimuth Distance (km) Brightness Sun altitude
Exits shadow 13:02:38 46° 255° (WSW) 1,462 3.8 -32.6°
Drops below altitude 10° 13:07:16 10° 232° (SW) 2,987 5.8 -32.5°
Sets 13:09:49 0° 228° (SW) 3,951 6.5 -32.4°
